OK1VCF-8 Weather Reports


time (UTC)temp
C
wind
direction
speed
KPH
gust
KPH
rain 1hr
cm
rain 24hr
cm
rain mn
cm
humidity
%
barometer
mb
20260505054149 16 0 0.0 0.0 0.00 0.00 0.00 76 1009.9
20260505053429 16 0 0.0 0.0 0.00 0.00 0.00 77 1009.8
20260505052709 16 0 0.0 0.0 0.00 0.00 0.00 78 1009.8
20260505051950 17 0 0.0 0.0 0.00 0.00 0.00 78 1009.8
20260505051232 16 0 0.0 0.0 0.00 0.00 0.00 78 1009.8
20260505050514 16 0 0.0 0.0 0.00 0.00 0.00 78 1010.0
20260505041400 13 0 0.0 0.0 0.00 0.00 0.00 92 1010.0
20260505040641 12 0 0.0 0.0 0.00 0.00 0.00 92 1010.0
20260505035638 12 0 0.0 0.0 0.00 0.00 0.00 92 1010.0
20260505034920 12 0 0.0 0.0 0.00 0.00 0.00 92 1010.0
20260505034203 12 0 0.0 0.0 0.00 0.00 0.00 91 1010.0
20260505033446 12 0 0.0 0.0 0.00 0.00 0.00 91 1010.0
20260505032727 12 0 0.0 0.0 0.00 0.00 0.00 90 1010.1
20260505032008 12 0 0.0 0.0 0.00 0.00 0.00 90 1010.1
20260505031249 12 0 0.0 0.0 0.00 0.00 0.00 90 1010.2
20260505030531 13 0 0.0 0.0 0.00 0.00 0.00 89 1010.4
20260505025812 13 0 0.0 0.0 0.00 0.00 0.00 89 1010.2
20260505025055 13 0 0.0 0.0 0.00 0.00 0.00 88 1010.4
20260505024336 13 0 0.0 0.0 0.00 0.00 0.00 88 1010.4
20260505023618 13 0 0.0 0.0 0.00 0.00 0.00 88 1010.4
20260505022900 13 0 0.0 0.0 0.00 0.00 0.00 87 1010.2
20260505022144 14 0 0.0 0.0 0.00 0.00 0.00 86 1010.2
20260505021424 14 0 0.0 0.0 0.00 0.00 0.00 86 1010.1
20260505020422 14 0 0.0 0.0 0.00 0.00 0.00 86 1010.3
20260505015704 14 0 0.0 0.0 0.00 0.00 0.00 85 1010.4
20260505014945 14 0 0.0 0.0 0.00 0.00 0.00 84 1010.2
20260505014228 14 0 0.0 0.0 0.00 0.00 0.00 84 1010.4
20260505013510 15 0 0.0 0.0 0.00 0.00 0.00 80 1010.4
20260505012746 15 0 0.0 0.0 0.00 0.00 0.00 78 1010.4
20260505012017 15 0 0.0 0.0 0.00 0.00 0.00 80 1010.5
20260505011235 15 0 0.0 0.0 0.00 0.00 0.00 79 1010.6
20260505010443 15 0 0.0 0.0 0.00 0.00 0.00 75 1010.7
20260505005646 15 0 0.0 0.0 0.00 0.00 0.00 74 1010.6
20260505004844 15 0 0.0 0.0 0.00 0.00 0.00 74 1011.2
20260505004041 15 0 0.0 0.0 0.00 0.00 0.00 75 1010.6
20260505003235 15 0 0.0 0.0 0.00 0.00 0.00 74 1010.8
20260505002420 15 0 0.0 0.0 0.00 0.00 0.00 74 1011.0
20260505001606 15 0 0.0 0.0 0.00 0.00 0.00 74 1010.9
20260505000441 15 0 0.0 0.0 0.00 0.00 0.00 76 1011.2
20260504235630 14 0 0.0 0.0 0.00 0.00 0.00 82 1011.0
20260504234821 13 0 0.0 0.0 0.00 0.00 0.00 86 1011.6
20260504234045 14 0 0.0 0.0 0.00 0.00 0.00 84 1010.8
20260504233311 13 0 0.0 0.0 0.00 0.00 0.00 86 1011.0
20260504232539 13 0 0.0 0.0 0.00 0.00 0.00 88 1011.3
20260504231812 13 0 0.0 0.0 0.00 0.00 0.00 88 1011.8
20260504231055 13 0 0.0 0.0 0.00 0.00 0.00 86 1012.2
20260504230336 14 0 0.0 0.0 0.00 0.00 0.00 83 1012.2
20260504225619 15 0 0.0 0.0 0.00 0.00 0.00 78 1012.8
20260504224900 15 0 0.0 0.0 0.00 0.00 0.00 75 1012.8
20260504224144 14 0 0.0 0.0 0.00 0.00 0.00 74 1013.0
20260504223427 15 0 0.0 0.0 0.00 0.00 0.00 74 1013.2
20260504221003 17 0 0.0 0.0 0.00 0.00 0.00 59 1013.2
20260504220246 17 0 0.0 0.0 0.00 0.00 0.00 57 1012.4
20260504215526 17 0 0.0 0.0 0.00 0.00 0.00 59 1012.2
20260504214808 17 0 0.0 0.0 0.00 0.00 0.00 60 1012.1
20260504214050 17 0 0.0 0.0 0.00 0.00 0.00 60 1012.2
20260504213332 17 0 0.0 0.0 0.00 0.00 0.00 58 1012.8
20260504212615 17 0 0.0 0.0 0.00 0.00 0.00 56 1012.4
20260504211857 18 0 0.0 0.0 0.00 0.00 0.00 55 1012.3
20260504211140 18 0 0.0 0.0 0.00 0.00 0.00 55 1012.3
20260504210421 18 0 0.0 0.0 0.00 0.00 0.00 54 1012.5
20260504205703 18 0 0.0 0.0 0.00 0.00 0.00 54 1012.4
20260504204944 18 0 0.0 0.0 0.00 0.00 0.00 54 1012.6
20260504204224 18 0 0.0 0.0 0.00 0.00 0.00 54 1012.6
20260504203507 18 0 0.0 0.0 0.00 0.00 0.00 54 1012.5
20260504202749 18 0 0.0 0.0 0.00 0.00 0.00 54 1012.6
20260504201748 18 0 0.0 0.0 0.00 0.00 0.00 54 1012.6
20260504201030 18 0 0.0 0.0 0.00 0.00 0.00 54 1012.7
20260504200312 17 0 0.0 0.0 0.00 0.00 0.00 54 1012.6
20260504195552 17 0 0.0 0.0 0.00 0.00 0.00 52 1012.6
20260504194835 18 0 0.0 0.0 0.00 0.00 0.00 53 1012.6
20260504194116 18 0 0.0 0.0 0.00 0.00 0.00 53 1012.5
20260504193358 18 0 0.0 0.0 0.00 0.00 0.00 52 1012.6
20260504192641 18 0 0.0 0.0 0.00 0.00 0.00 52 1012.6
20260504191922 18 0 0.0 0.0 0.00 0.00 0.00 51 1012.4
20260504191203 18 0 0.0 0.0 0.00 0.00 0.00 52 1012.5
20260504190447 18 0 0.0 0.0 0.00 0.00 0.00 50 1012.5
20260504185726 19 0 0.0 0.0 0.00 0.00 0.00 50 1012.4
20260504185007 20 0 0.0 0.0 0.00 0.00 0.00 48 1012.2
20260504184250 20 0 0.0 0.0 0.00 0.00 0.00 48 1012.2
20260504183531 20 0 0.0 0.0 0.00 0.00 0.00 47 1012.2
20260504182528 20 0 0.0 0.0 0.00 0.00 0.00 46 1012.2
20260504181810 21 0 0.0 0.0 0.00 0.00 0.00 45 1012.2
20260504181052 21 0 0.0 0.0 0.00 0.00 0.00 44 1012.2
20260504180334 21 0 0.0 0.0 0.00 0.00 0.00 44 1012.2
20260504175614 21 0 0.0 0.0 0.00 0.00 0.00 42 1012.3
20260504174857 21 0 0.0 0.0 0.00 0.00 0.00 42 1012.4
20260504174139 21 0 0.0 0.0 0.00 0.00 0.00 42 1012.2
20260504173422 22 0 0.0 0.0 0.00 0.00 0.00 42 1012.1
20260504172705 22 0 0.0 0.0 0.00 0.00 0.00 42 1012.2
20260504171946 22 0 0.0 0.0 0.00 0.00 0.00 41 1012.2
20260504171228 22 0 0.0 0.0 0.00 0.00 0.00 40 1012.3
20260504170511 23 0 0.0 0.0 0.00 0.00 0.00 40 1012.2
20260504160402 24 0 0.0 0.0 0.00 0.00 0.00 38 1012.6
20260504141151 26 0 0.0 0.0 0.00 0.00 0.00 34 1013.3
20260504140429 25 0 0.0 0.0 0.00 0.00 0.00 34 1013.4
20260504110143 23 0 0.0 0.0 0.00 0.00 0.00 38 1014.8
20260504081502 19 0 0.0 0.0 0.00 0.00 0.00 44 1015.4
20260504080742 19 0 0.0 0.0 0.00 0.00 0.00 44 1015.4